Regional Weather Roundup
Issued by NWS Albany, NY

Home | Current Version | Previous Version | Text Only | Print | Product List | Glossary On
Versions: 1 2 3 4 5 6 7 8 9 10 11 12 13 14 15 16 17 18 19 20 21 22 23 24 25 26 27 28 29 30 31 32 33 34 35 36 37 38 39 40 41 42 43 44 45 46 47 48 49 50
000
ASUS41 KALY 261010
RWRALY

NEW YORK STATE HOURLY WEATHER ROUNDUP
NATIONAL WEATHER SERVICE ALBANY NY
500 AM EST WED NOV 26 2014

NOTE: "FAIR" INDICATES FEW OR NO CLOUDS BELOW 12,000 FEET WITH NO
SIGNIFICANT WEATHER AND/OR NO OBSTRUCTIONS TO VISIBILITY.

NYZ032-033-038>043-046>054-057>066-NYZ062>081-261100-
EAST


CITY           SKY/WX    TMP DP  RH WIND       PRES   REMARKS
ALBANY         CLOUDY    38  26  62 W8        30.21R WCI  32
GLENS FALLS    CLOUDY    37  24  59 N9        30.19S WCI  30
POUGHKEEPSIE   CLOUDY    41  30  65 N5        30.19F
MONTGOMERY     CLOUDY    38  30  73 N7        30.18S WCI  33
WHITE PLAINS   LGT RAIN  43  30  60 N17       30.11F
ISLIP          CLOUDY    48  31  51 N12       30.11F
NEW YORK CITY  CLOUDY    49  29  46 N10       30.11F
CENTRAL PARK   CLOUDY    48  28  46 VRB7      30.14F
$$

NYZ005>009-017-018-044>046-055-056-261100-
CENTRAL


CITY           SKY/WX    TMP DP  RH WIND       PRES   REMARKS
FULTON         CLOUDY    36  24  62 CALM      30.20S
SYRACUSE       CLOUDY    37  24  59 W7        30.20S WCI  32
ROME           CLOUDY    35  26  69 W3        30.23R
ELMIRA         CLOUDY    35  25  66 E7        30.17F WCI  29
BINGHAMTON     CLOUDY    31  25  78 E3        30.14F
MONTICELLO     CLOUDY    34  27  75 N7        30.16F WCI  28
$$

NYZ026>034-041>043-261100-
NORTH


CITY           SKY/WX    TMP DP  RH WIND       PRES   REMARKS
WATERTOWN      CLOUDY    35  24  64 N3        30.23R
FORT DRUM      NOT AVBL
MASSENA        CLOUDY    33  21  61 NW8       30.25R WCI  26
SARANAC LAKE   CLOUDY    29  22  75 VRB7      30.14R WCI  22
PLATTSBURGH    CLOUDY    35  23  61 CALM      30.22S
$$

NYZ001>004-010>016-019>021-261100-
WEST


CITY           SKY/WX    TMP DP  RH WIND       PRES   REMARKS
NIAGARA FALLS  CLOUDY    29  22  75 S3        30.19F
BUFFALO        CLOUDY    31  23  72 E3        30.19F
DUNKIRK        CLOUDY    34  25  69 E5        30.18F WCI  30
JAMESTOWN      CLOUDY    30  23  74 CALM      30.12F
WELLSVILLE     CLOUDY    31  23  72 NE5       30.12F WCI  26
ROCHESTER      CLOUDY    32  26  78 SW3       30.20F
PENN YAN       CLOUDY    33  24  69 CALM      30.19F
$$

             KEY
       WCI = WIND CHILL INDEX
       VSB = VISIBILITY
       HX  = HEAT INDEX
$$


USA.gov is the U.S. government's official web portal to all federal, state and local government web resources and services.